Preview of NWS' New Version of Forecast
This preview is not operational and should not be used for support decisions.

Regional Weather Roundup (RWR)

Issued by National Weather Service (NWS)

                            
000
ASUS43 KTOP 251308
RWRKS 

WEATHER ROUNDUP FOR KANSAS
NATIONAL WEATHER SERVICE GOODLAND KS
800 AM CDT SUN AUG 25 2019

NOTE:  "FAIR" INDICATES FEW OR NO CLOUDS BELOW 12,000 FEET WITH NO
SIGNIFICANT WEATHER AND/OR OBSTRUCTIONS TO VISIBILITY.

KSZ001>006-013>018-027>032-041>047-251400-
NORTHWEST KANSAS
  
CITY           SKY/WX    TMP DP  RH WIND       PRES   REMARKS
GOODLAND       FOG       62  62 100 S9        29.89R VSB<1/4          
HAYS           CLOUDY    64  62  93 CALM      29.69R                  
HILL CITY      CLOUDY    62  61  96 SE3       29.89F                  
RUSSELL        CLOUDY    64  63  96 CALM      29.87R                  
$$

KSZ061>065-074>080-084>089-251400-
SOUTHWEST KANSAS
  
CITY           SKY/WX    TMP DP  RH WIND       PRES   REMARKS
DODGE CITY     CLOUDY    66  63  90 SE10      29.90R                  
ELKHART        CLEAR     68  67  97 SW8       29.91R                  
GARDEN CITY    FOG       64  64 100 E10       29.90R VSB<1/4          
GREAT BEND     CLOUDY    63  62  97 S3        29.88S                  
LIBERAL        CLEAR     69  67  93 SE5       29.89R                  
PRATT          CLOUDY    64  62  95 S5        29.88F                  
$$

KSZ066>073-081>083-090>101-251400-
SOUTHEAST KANSAS
  
CITY           SKY/WX    TMP DP  RH WIND       PRES   REMARKS
CHANUTE        LGT RAIN  67  65  93 SE7       29.91F                  
COFFEYVILLE    LGT RAIN  67  65  93 NE3       29.91S                  
HUTCHINSON     CLOUDY    64  63  96 S6        29.86F                  
MEDICINE LODGE   N/A     64  63  96 S10       29.90R                  
NEWTON         CLOUDY    63  62  97 S10       29.88F                  
PARSONS        TSTM      66  66 100 CALM      29.92R                  
WICHITA INTL   TSTM      65  62  90 S12       29.88F                  
WICHITA JABRA  LGT RAIN  63  63 100 S12       29.87F                  
WICHITA MCCONL LGT RAIN  64  63  94 SE13      29.88                   
WINFIELD       TSTM      64  32  30 CALM      29.92S                  
$$

KSZ007>012-019>026-033>040-048>060-102>105-251400-
NORTHEAST KANSAS
  
CITY           SKY/WX    TMP DP  RH WIND       PRES   REMARKS
CONCORDIA      CLOUDY    67  65  93 E7        29.87S                  
EMPORIA        LGT RAIN  64  64 100 SE8       29.87F                  
LAWRENCE       LGT RAIN  68  65  90 E8        29.90S FOG              
MANHATTAN      LGT RAIN  68  66  93 S3        29.86F                  
MARYSVILLE     DRIZZLE  N/A N/A N/A E7        29.88F                  
OLATHE IND     TSTM      67  65  93 SE8       29.92F FOG              
OLATHE EXE     TSTM      65  65 100 SE6       29.93R VSB 1/2          
SALINA         CLOUDY    65  63  93 N3        29.87F                  
TOPEKA BILLARD PTSUNNY   68  65  90 SE9       29.89R                  
TOPEKA FORBES  LGT RAIN  69  65  86 SE7       29.88R                  
$$